Regional Weather Roundup
Issued by NWS

Home | Current Version | Previous Version | Graphics & Text | Print | Product List | Glossary Off
Versions: 1 2 3 4 5 6 7 8 9 10 11 12 13 14 15 16 17 18 19 20 21 22 23 24 25 26 27 28 29 30 31 32 33 34 35 36 37 38 39 40 41 42 43 44 45 46 47 48 49 50

000
ASUS43 KTOP 010659
RWRKS

WEATHER ROUNDUP FOR KANSAS
NATIONAL WEATHER SERVICE GOODLAND KS
200 AM CDT SUN MAY 01 2016

NOTE:  "FAIR" INDICATES FEW OR NO CLOUDS BELOW 12,000 FEET WITH NO
SIGNIFICANT WEATHER AND/OR OBSTRUCTIONS TO VISIBILITY.

KSZ001>006-013>018-027>032-041>047-010800-
NORTHWEST KANSAS

CITY           SKY/WX    TMP DP  RH WIND       PRES   REMARKS
GOODLAND       CLOUDY    35  33  92 N23G30    30.03R WCI  23
HAYS           CLOUDY    43  30  61 W14       29.97S
HILL CITY      CLOUDY    40  36  86 NW18      29.97S WCI  31
RUSSELL        CLOUDY    43  39  86 W14       29.95R
$$

KSZ061>065-074>080-084>089-010800-
SOUTHWEST KANSAS

CITY           SKY/WX    TMP DP  RH WIND       PRES   REMARKS
DODGE CITY     CLOUDY    39  34  82 NW16      30.01S WCI  30
ELKHART          N/A     38  30  73 NW8         N/A
GARDEN CITY    CLOUDY    39  32  76 NW21G28   30.03S WCI  29
GREAT BEND     CLOUDY    43  36  75 W15       29.97S
LIBERAL        CLEAR     37  30  75 NW12      30.06S WCI  30
$$

KSZ066>073-081>083-090>101-010800-
SOUTHEAST KANSAS

CITY           SKY/WX    TMP DP  RH WIND       PRES   REMARKS
CHANUTE        CLEAR     45  42  89 CALM      29.93S
COFFEYVILLE    CLEAR     51  44  77 CALM      29.94S
HUTCHINSON     MOCLDY    45  40  82 W12       29.95R
MEDICINE LODGE   N/A     43  37  79 W7        30.00R
NEWTON         MOCLDY    45  37  76 NW6       29.95S
PARSONS        CLEAR     47  45  93 CALM      29.94S
WICHITA INTL   CLEAR     47  41  80 W12       29.95R
WICHITA JABRA  CLEAR     46  41  82 W8        29.94S
WINFIELD       CLEAR     46  42  86 W7        29.97R
$$

KSZ007>012-019>026-033>040-048>060-102>105-010800-
NORTHEAST KANSAS

CITY           SKY/WX    TMP DP  RH WIND       PRES   REMARKS
CONCORDIA      PTCLDY    43  41  93 W7        29.91R
EMPORIA        CLEAR     47  43  86 W5        29.92R
LAWRENCE       MOCLDY    51  46  83 W5        29.90S
MANHATTAN      CLOUDY    51  44  77 SW5       29.91R
OLATHE IND     PTCLDY    52  46  80 W5        29.90S
OLATHE EXE     PTCLDY    52  46  80 W3        29.89S
SALINA         CLEAR     46  41  82 W10       29.94R
TOPEKA BILLARD PTCLDY    52  45  77 SW3       29.90S
TOPEKA FORBES  PTCLDY    50  45  83 W7        29.90S
$$




USA.gov is the U.S. government's official web portal to all federal, state and local government web resources and services.